Weather History for KLHZ - March, 2014

Change the Weather History Date:

Tuesday, March 18, 2014

  Actual Average (KRDU) Record (KRDU)
Temperature  
Mean Temperature 37 °F 52 °F  
Max Temperature 41 °F 64 °F 85 °F (2011)
Min Temperature 33 °F 40 °F 19 °F (1967)
Degree Days  
Heating Degree Days 28 13  
Month to date heating degree days 279  
Since 1 July heating degree days 2851  
Cooling Degree Days 0 0  
Month to date cooling degree days 0  
Year to date cooling degree days 1  
Moisture  
Dew Point 34 °F    
Average Humidity 90    
Maximum Humidity 93    
Minimum Humidity 81    
Precipitation  
Precipitation 0.44 in 0.13 in 3.17 in (1983)
Month to date precipitation 2.43  
Year to date precipitation 9.16  
Snow  
Snow 0.00 in 0.00 in 1.50 in (1893)
Month to date snowfall 0.4  
Since 1 July snowfall 5.9  
Snow Depth -    
Sea Level Pressure  
Sea Level Pressure 30.05 in    
Wind  
Wind Speed 5 mph (North)    
Max Wind Speed 13 mph    
Max Gust Speed 21 mph    
Visibility 5 miles    
Events Rain , Snow    
T = Trace of Precipitation, MM = Missing Value Source: NWS Daily Summary

Daily Weather History Graph

Daily Weather History Graph

Search for Another Location

Airport or City:

Trip Planner

Search our weather history database for the weather conditions in past years. The results will help you decide how hot, cold, wet, or windy it might be!

Date:

Astronomy

Mar. 18, 2014 Rise Set
Actual Time 7:19 AM EDT 7:23 PM EDT
Civil Twilight 6:54 AM EDT 7:48 PM EDT
Nautical Twilight 6:24 AM EDT 8:18 PM EDT
Astronomical Twilight 5:54 AM EDT 8:49 PM EDT
Moon 9:33 PM EDT (3/18) 8:12 AM EDT (3/18)
Length of Visible Light 12h 54m
Length of Day
12h 03m
Waning Gibbous, 96% of the Moon is Illuminated
Mar 18
Waning Gibbous
Mar 23
Last Quarter
Mar 30
New
Apr 7
First Quarter
Apr 15
Full

Hourly Weather History & Observations

Time (EDT) Temp. Windchill Dew Point Humidity Pressure Visibility Wind Dir Wind Speed Gust Speed Precip Events Conditions
12:15 AM 33.8 °F 28.6 °F 32.0 °F 93% 29.99 in 4.0 mi North 5.8 mph - N/A   Overcast
12:35 AM 33.8 °F 29.6 °F 32.0 °F 93% 29.99 in 3.0 mi North 4.6 mph - N/A   Overcast
12:55 AM 33.8 °F 30.8 °F 32.0 °F 93% 30.00 in 4.0 mi North 3.5 mph - N/A Snow Light Snow
1:15 AM 33.8 °F 30.8 °F 32.0 °F 93% 30.00 in 5.0 mi North 3.5 mph - N/A   Overcast
1:35 AM 33.8 °F 29.6 °F 32.0 °F 93% 30.00 in 4.0 mi North 4.6 mph - N/A Snow Light Snow
1:55 AM 33.8 °F 30.8 °F 32.0 °F 93% 30.00 in 7.0 mi North 3.5 mph - N/A   Overcast
2:15 AM 33.8 °F 28.6 °F 32.0 °F 93% 29.99 in 7.0 mi North 5.8 mph - N/A   Overcast
2:35 AM 33.8 °F 28.6 °F 32.0 °F 93% 29.99 in 7.0 mi NNE 5.8 mph - N/A   Overcast
2:55 AM 33.8 °F 29.6 °F 32.0 °F 93% 29.98 in 10.0 mi North 4.6 mph - N/A   Overcast
3:15 AM 33.8 °F 29.6 °F 32.0 °F 93% 29.98 in 10.0 mi NNE 4.6 mph - 0.15 in   Overcast
3:35 AM 33.8 °F 30.8 °F 32.0 °F 93% 29.97 in 10.0 mi North 3.5 mph - 0.15 in   Overcast
3:55 AM 33.8 °F 30.8 °F 32.0 °F 93% 29.96 in 10.0 mi North 3.5 mph - 0.16 in   Overcast
4:15 AM 33.8 °F 29.6 °F 32.0 °F 93% 29.96 in 7.0 mi North 4.6 mph - 0.01 in   Overcast
4:35 AM 33.8 °F 27.7 °F 32.0 °F 93% 29.97 in 7.0 mi North 6.9 mph - 0.01 in   Overcast
4:55 AM 33.8 °F 30.8 °F 32.0 °F 93% 29.99 in 7.0 mi North 3.5 mph - 0.02 in   Overcast
5:15 AM 33.8 °F - 32.0 °F 93% 30.00 in 7.0 mi Calm Calm - 0.01 in   Overcast
5:35 AM 33.8 °F 28.6 °F 32.0 °F 93% 30.00 in 4.0 mi North 5.8 mph - 0.01 in   Overcast
5:55 AM 33.8 °F 29.6 °F 32.0 °F 93% 30.00 in 3.0 mi North 4.6 mph - 0.03 in   Overcast
6:15 AM 33.8 °F 29.6 °F 32.0 °F 93% 29.98 in 3.0 mi North 4.6 mph - N/A   Overcast
6:35 AM 33.8 °F 29.6 °F 32.0 °F 93% 29.99 in 5.0 mi North 4.6 mph - N/A   Overcast
6:55 AM 33.8 °F 29.6 °F 32.0 °F 93% 29.99 in 5.0 mi North 4.6 mph - N/A   Overcast
7:15 AM 33.8 °F 29.6 °F 32.0 °F 93% 29.99 in 5.0 mi North 4.6 mph - N/A   Overcast
7:35 AM 33.8 °F 28.6 °F 32.0 °F 93% 29.95 in 4.0 mi North 5.8 mph - N/A   Overcast
7:55 AM 33.8 °F 28.6 °F 32.0 °F 93% 29.94 in 2.5 mi North 5.8 mph - N/A   Overcast
8:15 AM 33.8 °F 30.8 °F 32.0 °F 93% 29.97 in 3.0 mi North 3.5 mph - N/A   Overcast
8:35 AM 33.8 °F 29.6 °F 32.0 °F 93% 29.98 in 5.0 mi North 4.6 mph - N/A   Overcast
8:55 AM 33.8 °F 28.6 °F 32.0 °F 93% 30.00 in 2.5 mi North 5.8 mph - N/A   Overcast
9:15 AM 33.8 °F 30.8 °F 32.0 °F 93% 30.02 in 2.0 mi North 3.5 mph - N/A   Overcast
9:35 AM 35.6 °F 31.7 °F 32.0 °F 87% 30.01 in 2.5 mi North 4.6 mph - N/A   Overcast
9:55 AM 35.6 °F 31.7 °F 32.0 °F 87% 30.01 in 5.0 mi North 4.6 mph - N/A   Overcast
10:15 AM 35.6 °F 30.7 °F 32.0 °F 87% 30.02 in 4.0 mi North 5.8 mph - N/A   Overcast
10:35 AM 35.6 °F 31.7 °F 32.0 °F 87% 30.04 in 7.0 mi North 4.6 mph - N/A   Overcast
10:55 AM 35.6 °F 30.7 °F 32.0 °F 87% 30.03 in 5.0 mi North 5.8 mph - N/A   Overcast
11:15 AM 35.6 °F 31.7 °F 32.0 °F 87% 30.04 in 5.0 mi North 4.6 mph - 0.01 in   Overcast
11:35 AM 35.6 °F 31.7 °F 32.0 °F 87% 30.05 in 5.0 mi North 4.6 mph - 0.01 in   Overcast
11:55 AM 35.6 °F 31.7 °F 33.8 °F 93% 30.05 in 5.0 mi North 4.6 mph - 0.02 in   Overcast
12:15 PM 35.6 °F 31.7 °F 33.8 °F 93% 30.06 in 2.0 mi North 4.6 mph - 0.03 in   Overcast
12:35 PM 35.6 °F 32.8 °F 33.8 °F 93% 30.07 in 3.0 mi North 3.5 mph - 0.06 in   Overcast
12:55 PM 35.6 °F - 33.8 °F 93% 30.07 in 3.0 mi Calm Calm - 0.08 in   Overcast
1:15 PM 37.4 °F - 33.8 °F 87% 30.07 in 2.5 mi Calm Calm - 0.04 in   Overcast
1:35 PM 37.4 °F 34.9 °F 33.8 °F 87% 30.08 in 2.0 mi North 3.5 mph - 0.06 in   Overcast
1:55 PM 37.4 °F 32.8 °F 33.8 °F 87% 30.07 in 3.0 mi NNW 5.8 mph - 0.07 in   Overcast
2:15 PM 37.4 °F 32.1 °F 35.6 °F 93% 30.07 in 4.0 mi North 6.9 mph - 0.01 in Rain Light Rain
2:35 PM 37.4 °F 30.8 °F 35.6 °F 93% 30.07 in 3.0 mi North 9.2 mph - 0.02 in Rain Light Rain
2:55 PM 37.4 °F 31.4 °F 35.6 °F 93% 30.08 in 2.0 mi NNW 8.1 mph - 0.03 in   Drizzle
3:15 PM 37.4 °F 30.3 °F 35.6 °F 93% 30.07 in 2.5 mi NNW 10.4 mph 16.1 mph 0.01 in   Light Drizzle
3:35 PM 37.4 °F 32.8 °F 35.6 °F 93% 30.08 in 3.0 mi NNW 5.8 mph - 0.01 in Rain Light Rain
3:55 PM 39.2 °F 34.2 °F 35.6 °F 87% 30.09 in 3.0 mi North 6.9 mph - 0.02 in   Light Drizzle
4:15 PM 39.2 °F 32.0 °F 35.6 °F 87% 30.10 in 2.0 mi North 11.5 mph 20.7 mph N/A   Light Drizzle
4:35 PM 39.2 °F 32.5 °F 35.6 °F 87% 30.10 in 2.0 mi North 10.4 mph 16.1 mph N/A   Light Drizzle
4:55 PM 39.2 °F 32.0 °F 35.6 °F 87% 30.09 in 7.0 mi North 11.5 mph - 0.01 in   Overcast
5:15 PM 41.0 °F 34.3 °F 35.6 °F 81% 30.10 in 10.0 mi North 11.5 mph 16.1 mph N/A   Overcast
5:35 PM 41.0 °F 35.2 °F 35.6 °F 81% 30.10 in 10.0 mi North 9.2 mph - N/A   Overcast
5:55 PM 41.0 °F 35.2 °F 35.6 °F 81% 30.10 in 10.0 mi NNE 9.2 mph 17.3 mph N/A   Overcast
6:15 PM 41.0 °F 33.9 °F 35.6 °F 81% 30.10 in 10.0 mi North 12.7 mph 18.4 mph N/A   Overcast
6:35 PM 41.0 °F 35.8 °F 35.6 °F 81% 30.11 in 7.0 mi NNE 8.1 mph - N/A   Overcast
6:55 PM 41.0 °F 35.2 °F 35.6 °F 81% 30.12 in 3.0 mi North 9.2 mph - N/A   Overcast
7:15 PM 39.2 °F 32.0 °F 35.6 °F 87% 30.12 in 3.0 mi NNE 11.5 mph - N/A   Overcast
7:35 PM 39.2 °F 32.5 °F 35.6 °F 87% 30.13 in 3.0 mi NNE 10.4 mph - N/A   Overcast
7:55 PM 39.2 °F 32.5 °F 37.4 °F 93% 30.13 in 3.0 mi NNE 10.4 mph - N/A   Drizzle
8:15 PM 39.2 °F 33.0 °F 37.4 °F 93% 30.14 in 3.0 mi North 9.2 mph - N/A   Light Drizzle
8:35 PM 39.2 °F 34.2 °F 35.6 °F 87% 30.14 in 4.0 mi North 6.9 mph - N/A   Drizzle
8:55 PM 39.2 °F 32.5 °F 35.6 °F 87% 30.15 in 4.0 mi North 10.4 mph - N/A   Light Drizzle
9:15 PM 39.2 °F 34.2 °F 35.6 °F 87% 30.15 in 7.0 mi North 6.9 mph - N/A   Light Drizzle
9:35 PM 39.2 °F 34.2 °F 35.6 °F 87% 30.16 in 10.0 mi North 6.9 mph - N/A   Overcast
9:55 PM 39.2 °F 34.2 °F 35.6 °F 87% 30.16 in 10.0 mi North 6.9 mph - N/A   Overcast
10:15 PM 39.2 °F 35.0 °F 35.6 °F 87% 30.17 in 7.0 mi North 5.8 mph - N/A   Overcast
10:35 PM 39.2 °F 34.2 °F 35.6 °F 87% 30.17 in 7.0 mi North 6.9 mph - N/A   Overcast
10:55 PM 39.2 °F 34.2 °F 35.6 °F 87% 30.18 in 7.0 mi North 6.9 mph - N/A   Overcast
11:15 PM 39.2 °F 35.9 °F 35.6 °F 87% 30.18 in 7.0 mi North 4.6 mph - N/A   Overcast
11:35 PM 39.2 °F 34.2 °F 35.6 °F 87% 30.17 in 7.0 mi North 6.9 mph - N/A   Overcast
11:55 PM 39.2 °F 35.9 °F 35.6 °F 87% 30.16 in 7.0 mi North 4.6 mph - N/A   Overcast